Precipitable_Water
1.38 1.39 1.44 1.43 1.41 1.37 1.38 1.41 1.40 1.44 1.43 1.41 1.39 1.38 1.37 1.37 1.36 1.35 1.38 1.35 1.37 1.36 1.33 1.31 1.33 1.36 1.37 1.40 1.36 1.39 1.45 1.47 1.48 1.47 1.44 1.39 1.37 1.39 1.44 1.48 1.41 1.40 1.40 1.38 1.46 1.49 1.47 1.43 1.44 1.47 1.49 1.42 1.42 1.43 1.43 1.46 1.47 1.42 1.39 1.35 1.30 1.31 1.23 1.14 1.01 0.98 1.12 1.24 1.20 1.19 1.26 1.27 1.23 1.31 1.26 1.29 1.33 1.39 1.38 1.37 1.36 1.34 1.34 1.34 1.34
1.35 1.38 1.40 1.42 1.40 1.39 1.39 1.41 1.41 1.45 1.41 1.40 1.38 1.40 1.40 1.39 1.38 1.38 1.33 1.36 1.36 1.34 1.33 1.33 1.33 1.34 1.34 1.34 1.36 1.37 1.39 1.43 1.45 1.44 1.40 1.37 1.35 1.36 1.32 1.34 1.35 1.36 1.40 1.39 1.41 1.44 1.47 1.42 1.40 1.43 1.49 1.44 1.41 1.39 1.41 1.41 1.43 1.42 1.40 1.35 1.30 1.29 1.34 1.18 1.11 1.05 1.00 1.18 1.21 1.30 1.28 1.36 1.24 1.37 1.30 1.25 1.27 1.32 1.30 1.30 1.35 1.39 1.36 1.34 1.31
1.37 1.40 1.39 1.38 1.38 1.40 1.39 1.39 1.41 1.42 1.38 1.37 1.36 1.39 1.41 1.41 1.40 1.34 1.32 1.34 1.36 1.32 1.32 1.33 1.33 1.33 1.32 1.32 1.33 1.33 1.33 1.34 1.38 1.37 1.36 1.35 1.31 1.28 1.29 1.31 1.30 1.29 1.31 1.33 1.38 1.44 1.42 1.41 1.39 1.41 1.44 1.39 1.38 1.36 1.36 1.34 1.36 1.33 1.33 1.36 1.29 1.28 1.31 1.31 1.18 1.06 1.03 1.08 1.23 1.20 1.24 1.31 1.28 1.27 1.33 1.33 1.31 1.30 1.25 1.24 1.25 1.29 1.32 1.32 1.30
1.36 1.38 1.37 1.36 1.38 1.41 1.39 1.40 1.39 1.38 1.34 1.35 1.34 1.37 1.41 1.41 1.41 1.35 1.32 1.34 1.33 1.32 1.32 1.34 1.34 1.33 1.30 1.29 1.29 1.29 1.28 1.27 1.29 1.31 1.29 1.28 1.28 1.24 1.24 1.28 1.31 1.32 1.31 1.33 1.38 1.40 1.39 1.38 1.37 1.38 1.40 1.36 1.35 1.34 1.34 1.33 1.31 1.31 1.27 1.28 1.27 1.25 1.28 1.29 1.29 1.19 1.18 1.09 1.20 1.20 1.26 1.24 1.27 1.34 1.37 1.38 1.33 1.28 1.24 1.24 1.29 1.28 1.28 1.30 1.30
1.36 1.34 1.35 1.34 1.37 1.37 1.37 1.39 1.37 1.34 1.33 1.34 1.33 1.36 1.38 1.41 1.42 1.36 1.34 1.31 1.33 1.33 1.32 1.34 1.33 1.31 1.27 1.26 1.25 1.25 1.25 1.25 1.23 1.23 1.24 1.25 1.23 1.21 1.22 1.24 1.26 1.27 1.28 1.31 1.33 1.35 1.37 1.37 1.39 1.39 1.37 1.30 1.31 1.30 1.34 1.30 1.31 1.29 1.26 1.28 1.28 1.30 1.32 1.33 1.30 1.30 1.21 1.12 1.15 1.27 1.31 1.30 1.32 1.32 1.34 1.26 1.27 1.27 1.29 1.27 1.29 1.31 1.32 1.37 1.43
1.39 1.34 1.32 1.31 1.32 1.32 1.34 1.36 1.35 1.34 1.33 1.34 1.34 1.35 1.38 1.39 1.40 1.39 1.36 1.31 1.32 1.33 1.32 1.30 1.28 1.25 1.26 1.27 1.27 1.26 1.26 1.24 1.22 1.20 1.19 1.21 1.20 1.17 1.19 1.21 1.23 1.25 1.24 1.25 1.27 1.30 1.30 1.32 1.34 1.36 1.33 1.27 1.24 1.27 1.31 1.30 1.31 1.28 1.24 1.25 1.30 1.34 1.31 1.30 1.30 1.27 1.23 1.19 1.16 1.14 1.24 1.24 1.27 1.29 1.34 1.33 1.23 1.17 1.24 1.37 1.45 1.46 1.47 1.49 1.62
1.44 1.39 1.33 1.27 1.27 1.28 1.30 1.30 1.32 1.34 1.35 1.35 1.38 1.38 1.37 1.38 1.38 1.36 1.37 1.33 1.30 1.29 1.31 1.29 1.28 1.24 1.25 1.26 1.25 1.25 1.25 1.24 1.22 1.21 1.18 1.17 1.17 1.16 1.11 1.14 1.16 1.19 1.22 1.21 1.23 1.26 1.27 1.29 1.32 1.31 1.27 1.23 1.21 1.23 1.28 1.30 1.29 1.25 1.26 1.26 1.29 1.26 1.25 1.26 1.26 1.22 1.20 1.16 1.16 1.18 1.19 1.27 1.27 1.16 1.27 1.33 1.30 1.28 1.27 1.35 1.39 1.55 1.63 1.67 1.65
1.46 1.43 1.38 1.32 1.27 1.25 1.27 1.30 1.32 1.34 1.37 1.39 1.40 1.40 1.39 1.38 1.37 1.39 1.39 1.34 1.31 1.28 1.28 1.27 1.27 1.26 1.25 1.25 1.26 1.26 1.25 1.22 1.20 1.19 1.18 1.14 1.13 1.14 1.13 1.09 1.10 1.14 1.15 1.17 1.20 1.21 1.23 1.24 1.25 1.29 1.25 1.23 1.21 1.24 1.27 1.24 1.28 1.25 1.28 1.29 1.27 1.24 1.22 1.23 1.23 1.22 1.18 1.16 1.15 1.13 1.18 1.16 1.20 1.29 1.34 1.39 1.39 1.50 1.64 1.63 1.51 1.54 1.62 1.72 1.74
1.48 1.46 1.43 1.35 1.31 1.29 1.29 1.31 1.33 1.35 1.37 1.39 1.39 1.40 1.40 1.39 1.39 1.39 1.38 1.35 1.34 1.32 1.31 1.30 1.28 1.25 1.25 1.24 1.24 1.25 1.22 1.19 1.18 1.15 1.12 1.11 1.11 1.10 1.14 1.12 1.07 1.07 1.11 1.14 1.17 1.17 1.16 1.18 1.20 1.22 1.26 1.21 1.18 1.19 1.24 1.27 1.22 1.18 1.22 1.26 1.25 1.22 1.19 1.19 1.18 1.17 1.16 1.16 1.15 1.21 1.21 1.23 1.27 1.32 1.38 1.41 1.45 1.56 1.80 1.83 1.68 1.69 1.69 1.63 1.67
1.49 1.47 1.43 1.39 1.39 1.37 1.32 1.29 1.29 1.31 1.33 1.34 1.36 1.38 1.39 1.39 1.38 1.36 1.35 1.34 1.34 1.34 1.32 1.31 1.29 1.25 1.22 1.22 1.22 1.22 1.18 1.18 1.15 1.11 1.10 1.10 1.09 1.09 1.12 1.13 1.12 1.10 1.08 1.08 1.10 1.14 1.15 1.14 1.15 1.16 1.16 1.13 1.11 1.09 1.10 1.12 1.13 1.12 1.11 1.17 1.21 1.20 1.18 1.16 1.15 1.16 1.16 1.13 1.14 1.18 1.18 1.20 1.27 1.38 1.42 1.53 1.73 1.88 1.84 1.79 1.64 1.66 1.65 1.51 1.49
1.51 1.47 1.44 1.45 1.46 1.43 1.36 1.30 1.27 1.25 1.27 1.31 1.34 1.35 1.35 1.37 1.37 1.35 1.35 1.34 1.33 1.33 1.32 1.29 1.26 1.26 1.23 1.20 1.18 1.17 1.15 1.14 1.11 1.07 1.05 1.07 1.10 1.11 1.08 1.09 1.12 1.11 1.09 1.07 1.04 1.06 1.11 1.16 1.16 1.17 1.12 1.05 1.03 1.02 1.05 1.07 1.08 1.07 1.07 1.10 1.16 1.18 1.15 1.15 1.16 1.18 1.17 1.16 1.21 1.25 1.26 1.30 1.42 1.54 1.59 1.67 1.77 1.84 1.82 1.74 1.65 1.56 1.43 1.31 1.16
1.51 1.51 1.51 1.50 1.48 1.43 1.37 1.32 1.26 1.24 1.26 1.27 1.30 1.32 1.34 1.34 1.33 1.32 1.31 1.31 1.32 1.34 1.30 1.28 1.26 1.25 1.25 1.23 1.19 1.15 1.13 1.12 1.09 1.05 1.04 1.03 1.04 1.07 1.11 1.10 1.11 1.11 1.09 1.07 1.06 1.05 1.05 1.07 1.11 1.16 1.19 1.14 1.10 1.09 1.06 1.05 1.05 1.05 1.07 1.10 1.14 1.20 1.26 1.23 1.18 1.18 1.20 1.23 1.28 1.34 1.39 1.41 1.53 1.67 1.74 1.72 1.69 1.75 1.82 1.73 1.60 1.49 1.40 1.34 1.36
1.53 1.55 1.56 1.52 1.49 1.45 1.40 1.34 1.28 1.25 1.23 1.25 1.29 1.31 1.31 1.31 1.30 1.28 1.25 1.28 1.30 1.28 1.27 1.27 1.25 1.25 1.24 1.20 1.16 1.15 1.14 1.14 1.08 1.04 1.03 1.02 1.02 1.03 1.06 1.10 1.11 1.10 1.10 1.10 1.07 1.05 1.06 1.06 1.06 1.08 1.10 1.10 1.06 1.08 1.10 1.08 1.05 1.08 1.10 1.13 1.17 1.19 1.20 1.26 1.33 1.33 1.37 1.35 1.35 1.40 1.48 1.58 1.65 1.81 1.89 1.78 1.78 1.66 1.68 1.60 1.57 1.53 1.51 1.46 1.42
1.53 1.54 1.54 1.52 1.50 1.47 1.41 1.36 1.30 1.27 1.28 1.28 1.28 1.27 1.26 1.25 1.26 1.28 1.28 1.30 1.28 1.25 1.25 1.24 1.25 1.25 1.23 1.19 1.16 1.16 1.17 1.17 1.09 1.04 1.03 1.02 1.03 1.03 1.04 1.06 1.08 1.11 1.13 1.12 1.09 1.08 1.06 1.04 1.04 1.03 1.03 1.03 1.05 1.04 1.07 1.07 1.12 1.13 1.15 1.17 1.18 1.19 1.24 1.32 1.38 1.44 1.51 1.52 1.53 1.51 1.68 1.82 1.80 1.89 2.03 1.99 1.84 1.71 1.63 1.50 1.56 1.51 1.43 1.27 1.21
1.53 1.55 1.53 1.53 1.51 1.47 1.42 1.37 1.31 1.31 1.32 1.30 1.28 1.25 1.24 1.24 1.25 1.27 1.27 1.25 1.23 1.20 1.20 1.20 1.22 1.23 1.22 1.20 1.17 1.15 1.15 1.16 1.10 1.05 1.03 1.02 1.03 1.04 1.07 1.09 1.08 1.09 1.12 1.13 1.12 1.09 1.10 1.10 1.09 1.06 1.07 1.07 1.08 1.07 1.10 1.15 1.18 1.22 1.26 1.26 1.27 1.33 1.41 1.42 1.42 1.46 1.51 1.59 1.65 1.72 1.83 1.94 1.96 2.00 2.10 2.24 2.09 1.85 1.77 1.69 1.62 1.42 1.22 1.13 1.06
1.50 1.54 1.53 1.51 1.47 1.44 1.40 1.36 1.34 1.34 1.33 1.32 1.28 1.25 1.25 1.24 1.22 1.25 1.25 1.27 1.29 1.28 1.26 1.25 1.22 1.19 1.20 1.20 1.16 1.12 1.13 1.13 1.09 1.06 1.04 1.03 1.05 1.07 1.09 1.09 1.08 1.08 1.10 1.13 1.13 1.13 1.12 1.13 1.12 1.08 1.07 1.07 1.07 1.08 1.10 1.17 1.19 1.21 1.22 1.24 1.28 1.35 1.42 1.51 1.62 1.70 1.73 1.77 1.80 1.83 1.91 2.01 2.09 2.13 2.17 2.20 2.15 2.03 1.87 1.60 1.38 1.16 0.99 0.89 0.84
1.44 1.48 1.48 1.48 1.46 1.44 1.42 1.37 1.34 1.33 1.32 1.30 1.26 1.25 1.24 1.25 1.26 1.30 1.24 1.24 1.23 1.21 1.20 1.20 1.20 1.18 1.16 1.16 1.13 1.11 1.11 1.13 1.09 1.06 1.05 1.06 1.08 1.10 1.11 1.12 1.10 1.09 1.09 1.13 1.15 1.16 1.16 1.16 1.13 1.08 1.09 1.08 1.09 1.11 1.13 1.16 1.18 1.19 1.19 1.22 1.28 1.32 1.40 1.57 1.70 1.74 1.77 1.84 1.89 1.92 1.99 2.07 2.13 2.16 2.16 2.13 1.99 1.81 1.53 1.23 1.00 1.01 0.98 0.89 0.88
1.40 1.44 1.44 1.47 1.45 1.42 1.40 1.39 1.34 1.32 1.31 1.26 1.25 1.26 1.28 1.30 1.27 1.28 1.20 1.18 1.18 1.20 1.21 1.19 1.20 1.18 1.15 1.14 1.15 1.09 1.08 1.15 1.11 1.08 1.08 1.09 1.11 1.12 1.14 1.12 1.10 1.10 1.11 1.15 1.18 1.18 1.18 1.16 1.15 1.14 1.11 1.12 1.15 1.16 1.17 1.20 1.21 1.23 1.23 1.21 1.24 1.31 1.44 1.63 1.71 1.79 1.88 1.93 1.95 1.99 2.02 2.07 2.12 2.11 1.99 1.88 1.71 1.52 1.25 0.99 1.02 1.04 0.94 0.95 0.90
1.36 1.38 1.41 1.47 1.45 1.40 1.38 1.37 1.34 1.31 1.28 1.26 1.28 1.26 1.26 1.25 1.27 1.30 1.25 1.22 1.19 1.23 1.22 1.18 1.18 1.20 1.20 1.19 1.18 1.12 1.12 1.17 1.14 1.11 1.12 1.13 1.15 1.18 1.19 1.15 1.10 1.10 1.10 1.12 1.18 1.19 1.19 1.19 1.14 1.12 1.12 1.15 1.20 1.20 1.20 1.24 1.26 1.28 1.29 1.31 1.32 1.37 1.51 1.66 1.70 1.75 1.83 1.85 1.92 1.97 2.01 2.10 2.11 1.96 1.85 1.73 1.58 1.41 1.28 1.21 1.18 1.09 1.00 0.96 0.91
1.36 1.42 1.47 1.48 1.44 1.37 1.34 1.31 1.30 1.28 1.26 1.28 1.30 1.29 1.31 1.30 1.28 1.25 1.24 1.22 1.20 1.20 1.22 1.19 1.16 1.17 1.21 1.19 1.18 1.15 1.13 1.19 1.18 1.16 1.15 1.15 1.17 1.20 1.22 1.17 1.12 1.10 1.11 1.12 1.12 1.16 1.17 1.20 1.18 1.13 1.11 1.11 1.14 1.18 1.21 1.27 1.30 1.36 1.43 1.42 1.41 1.44 1.65 1.71 1.77 1.74 1.79 1.80 1.84 1.94 2.00 2.03 1.86 1.75 1.68 1.57 1.44 1.42 1.36 1.24 1.13 1.03 0.94 0.92 0.90
1.44 1.46 1.45 1.41 1.35 1.29 1.28 1.27 1.25 1.26 1.29 1.27 1.29 1.29 1.28 1.25 1.25 1.24 1.21 1.22 1.21 1.19 1.17 1.18 1.17 1.18 1.21 1.23 1.21 1.22 1.21 1.20 1.24 1.20 1.18 1.17 1.19 1.20 1.22 1.21 1.20 1.16 1.14 1.13 1.13 1.13 1.16 1.17 1.20 1.21 1.16 1.16 1.17 1.19 1.23 1.28 1.38 1.47 1.53 1.51 1.57 1.65 1.71 1.69 1.74 1.78 1.78 1.82 1.87 1.93 1.89 1.78 1.68 1.58 1.47 1.37 1.23 1.17 1.13 1.06 1.04 1.02 0.97 0.89 0.86
1.42 1.40 1.35 1.28 1.25 1.25 1.24 1.26 1.29 1.28 1.30 1.31 1.26 1.23 1.27 1.28 1.28 1.26 1.24 1.22 1.18 1.16 1.17 1.18 1.17 1.19 1.23 1.26 1.27 1.27 1.30 1.27 1.31 1.23 1.21 1.20 1.21 1.23 1.24 1.26 1.28 1.24 1.18 1.16 1.17 1.18 1.20 1.25 1.25 1.27 1.24 1.21 1.20 1.24 1.31 1.39 1.47 1.53 1.57 1.62 1.65 1.68 1.69 1.73 1.75 1.76 1.77 1.82 1.83 1.75 1.65 1.55 1.48 1.42 1.33 1.22 1.11 1.11 1.06 1.03 1.02 1.03 1.05 1.03 0.99
1.33 1.28 1.25 1.22 1.23 1.25 1.28 1.30 1.31 1.34 1.34 1.35 1.32 1.28 1.31 1.30 1.30 1.31 1.28 1.26 1.24 1.22 1.23 1.24 1.23 1.24 1.27 1.31 1.34 1.35 1.37 1.38 1.33 1.29 1.27 1.26 1.26 1.28 1.29 1.32 1.36 1.35 1.28 1.20 1.20 1.23 1.31 1.33 1.34 1.33 1.29 1.26 1.28 1.34 1.42 1.48 1.51 1.56 1.62 1.65 1.68 1.71 1.73 1.73 1.74 1.75 1.77 1.76 1.68 1.59 1.55 1.50 1.38 1.30 1.23 1.11 1.07 1.06 1.04 1.04 1.06 1.09 1.08 1.08 1.10
1.27 1.25 1.25 1.27 1.31 1.34 1.38 1.40 1.43 1.43 1.44 1.46 1.45 1.43 1.43 1.44 1.45 1.44 1.42 1.39 1.35 1.32 1.33 1.36 1.34 1.30 1.28 1.31 1.35 1.40 1.45 1.45 1.45 1.40 1.36 1.34 1.34 1.35 1.37 1.40 1.43 1.41 1.40 1.34 1.33 1.34 1.34 1.37 1.41 1.39 1.33 1.32 1.37 1.43 1.48 1.51 1.55 1.60 1.64 1.68 1.71 1.74 1.75 1.74 1.74 1.75 1.72 1.61 1.54 1.50 1.48 1.44 1.33 1.24 1.16 1.09 1.05 1.05 1.06 1.09 1.11 1.11 1.07 1.05 1.06
1.28 1.27 1.30 1.34 1.36 1.39 1.43 1.45 1.46 1.46 1.49 1.50 1.46 1.46 1.47 1.49 1.44 1.49 1.50 1.48 1.46 1.41 1.42 1.41 1.40 1.37 1.37 1.37 1.40 1.46 1.50 1.51 1.52 1.50 1.46 1.46 1.46 1.47 1.49 1.50 1.51 1.52 1.48 1.47 1.43 1.41 1.42 1.43 1.43 1.41 1.38 1.40 1.45 1.49 1.51 1.55 1.59 1.64 1.67 1.70 1.73 1.74 1.75 1.75 1.73 1.68 1.56 1.49 1.47 1.44 1.40 1.38 1.29 1.20 1.16 1.10 1.08 1.11 1.10 1.11 1.12 1.12 1.11 1.06 1.03
1.28 1.30 1.34 1.36 1.38 1.41 1.41 1.43 1.47 1.48 1.49 1.52 1.51 1.52 1.51 1.52 1.50 1.53 1.54 1.54 1.53 1.52 1.51 1.53 1.53 1.53 1.52 1.54 1.54 1.56 1.59 1.59 1.59 1.61 1.55 1.55 1.56 1.57 1.60 1.61 1.61 1.62 1.61 1.59 1.49 1.45 1.43 1.41 1.40 1.40 1.42 1.46 1.50 1.52 1.54 1.57 1.62 1.66 1.68 1.71 1.74 1.76 1.77 1.72 1.66 1.51 1.45 1.44 1.41 1.37 1.38 1.31 1.23 1.18 1.13 1.12 1.06 1.06 1.07 1.04 1.04 1.05 1.03 0.96 0.91
1.32 1.34 1.37 1.39 1.42 1.43 1.42 1.42 1.44 1.48 1.49 1.52 1.55 1.55 1.56 1.55 1.53 1.51 1.52 1.52 1.54 1.55 1.58 1.59 1.59 1.60 1.60 1.64 1.68 1.70 1.70 1.70 1.69 1.69 1.65 1.61 1.60 1.63 1.64 1.64 1.66 1.67 1.65 1.66 1.60 1.52 1.45 1.42 1.40 1.42 1.47 1.52 1.55 1.58 1.57 1.61 1.62 1.65 1.69 1.74 1.76 1.75 1.71 1.65 1.53 1.48 1.47 1.42 1.39 1.38 1.32 1.25 1.22 1.18 1.09 1.04 1.05 1.08 1.11 1.06 1.04 1.02 0.99 0.94 0.90
1.37 1.39 1.41 1.44 1.45 1.47 1.45 1.45 1.46 1.46 1.48 1.49 1.50 1.53 1.56 1.58 1.56 1.52 1.51 1.52 1.52 1.53 1.55 1.57 1.56 1.57 1.59 1.64 1.68 1.70 1.71 1.73 1.76 1.76 1.78 1.73 1.70 1.69 1.67 1.66 1.64 1.62 1.61 1.62 1.62 1.58 1.48 1.42 1.44 1.47 1.50 1.52 1.53 1.55 1.56 1.59 1.63 1.66 1.70 1.73 1.73 1.71 1.68 1.64 1.62 1.58 1.51 1.45 1.41 1.33 1.26 1.20 1.16 1.08 1.05 1.05 1.04 1.07 1.12 1.07 1.02 1.00 0.96 0.93 0.89
1.45 1.47 1.49 1.50 1.50 1.51 1.48 1.47 1.47 1.50 1.53 1.55 1.58 1.62 1.61 1.60 1.61 1.65 1.72 1.74 1.69 1.66 1.65 1.66 1.70 1.73 1.72 1.70 1.65 1.63 1.67 1.70 1.80 1.92 1.91 1.91 1.87 1.79 1.71 1.67 1.66 1.64 1.65 1.66 1.64 1.65 1.59 1.50 1.49 1.47 1.46 1.45 1.46 1.48 1.51 1.58 1.63 1.69 1.72 1.70 1.68 1.65 1.58 1.51 1.43 1.45 1.44 1.40 1.35 1.25 1.18 1.14 1.10 1.08 1.04 1.04 1.05 1.08 1.12 1.07 1.05 0.98 0.95 0.95 0.88
1.46 1.48 1.49 1.49 1.50 1.49 1.49 1.53 1.54 1.57 1.62 1.63 1.64 1.68 1.74 1.76 1.78 1.77 1.75 1.82 1.84 1.85 1.84 1.81 1.86 1.88 1.86 1.89 1.90 1.82 1.80 1.89 2.01 2.01 2.03 2.04 2.03 1.99 1.94 1.88 1.83 1.78 1.76 1.75 1.71 1.65 1.58 1.55 1.57 1.56 1.56 1.56 1.54 1.55 1.58 1.63 1.64 1.67 1.68 1.65 1.64 1.58 1.52 1.49 1.50 1.47 1.41 1.36 1.27 1.21 1.14 1.09 1.08 1.04 1.02 1.02 1.06 1.08 1.09 1.03 1.00 0.97 0.92 0.88 0.84
1.43 1.46 1.47 1.46 1.50 1.54 1.54 1.55 1.58 1.59 1.64 1.69 1.70 1.68 1.65 1.69 1.73 1.77 1.80 1.82 1.85 1.87 1.88 1.90 1.95 1.97 1.98 1.99 2.09 2.09 2.08 2.11 2.11 2.09 2.06 2.05 2.04 2.02 1.99 1.96 1.91 1.85 1.81 1.74 1.67 1.65 1.63 1.61 1.62 1.65 1.65 1.65 1.64 1.65 1.68 1.67 1.68 1.67 1.65 1.64 1.58 1.55 1.50 1.46 1.46 1.42 1.32 1.28 1.22 1.17 1.12 1.09 1.05 1.03 1.03 1.03 1.02 1.05 1.05 1.03 0.99 0.94 0.89 0.88 0.84
1.46 1.48 1.54 1.54 1.53 1.51 1.51 1.49 1.50 1.49 1.50 1.58 1.61 1.60 1.56 1.54 1.58 1.67 1.72 1.75 1.80 1.85 1.88 1.89 1.92 1.96 2.00 2.04 2.07 2.14 2.14 2.11 2.08 2.07 2.06 2.03 2.01 2.00 1.99 1.97 1.95 1.91 1.87 1.83 1.69 1.66 1.69 1.67 1.66 1.67 1.68 1.66 1.69 1.70 1.70 1.71 1.71 1.66 1.60 1.52 1.51 1.50 1.41 1.43 1.41 1.35 1.32 1.26 1.18 1.14 1.11 1.08 1.07 1.07 1.08 1.06 1.01 1.03 0.98 0.96 0.92 0.89 0.87 0.89 0.86
1.51 1.52 1.57 1.55 1.53 1.45 1.47 1.45 1.43 1.42 1.40 1.41 1.45 1.49 1.47 1.46 1.42 1.45 1.59 1.68 1.75 1.78 1.80 1.82 1.85 1.90 1.96 2.01 2.05 2.04 2.09 2.13 2.12 2.08 2.06 2.04 2.02 2.00 1.99 1.99 1.97 1.96 1.92 1.81 1.73 1.70 1.71 1.71 1.71 1.73 1.72 1.68 1.70 1.68 1.71 1.70 1.65 1.57 1.54 1.49 1.45 1.43 1.47 1.46 1.37 1.38 1.29 1.21 1.17 1.14 1.09 1.09 1.08 1.12 1.11 1.07 1.03 1.00 0.98 0.96 0.93 0.89 0.88 0.86 0.86
1.63 1.61 1.59 1.55 1.52 1.51 1.49 1.50 1.51 1.51 1.51 1.46 1.41 1.42 1.44 1.45 1.44 1.44 1.42 1.47 1.57 1.68 1.74 1.75 1.76 1.79 1.85 1.92 1.96 1.99 2.03 2.07 2.08 2.07 2.06 2.04 2.02 1.99 1.96 1.93 1.94 1.95 1.92 1.84 1.83 1.78 1.79 1.77 1.78 1.78 1.79 1.78 1.75 1.74 1.72 1.68 1.62 1.57 1.52 1.51 1.51 1.49 1.44 1.38 1.34 1.27 1.22 1.13 1.16 1.12 1.06 1.09 1.09 1.13 1.10 1.08 1.06 1.03 0.98 0.94 0.92 0.85 0.85 0.85 0.85
1.81 1.79 1.78 1.74 1.69 1.61 1.58 1.58 1.61 1.60 1.58 1.56 1.52 1.46 1.44 1.48 1.51 1.50 1.45 1.41 1.43 1.46 1.53 1.59 1.65 1.69 1.71 1.76 1.84 1.89 1.92 1.97 1.99 2.00 1.99 1.98 1.95 1.94 1.91 1.82 1.74 1.76 1.80 1.83 1.82 1.82 1.80 1.80 1.81 1.79 1.79 1.75 1.72 1.75 1.70 1.70 1.62 1.61 1.59 1.55 1.49 1.42 1.36 1.32 1.33 1.31 1.26 1.21 1.15 1.10 1.10 1.11 1.12 1.08 1.07 1.04 1.00 0.97 0.93 0.89 0.90 0.87 0.86 0.85 0.86
1.70 1.64 1.62 1.58 1.60 1.62 1.60 1.59 1.57 1.55 1.52 1.51 1.51 1.49 1.50 1.48 1.49 1.52 1.53 1.52 1.53 1.54 1.44 1.47 1.54 1.59 1.64 1.67 1.72 1.78 1.81 1.85 1.87 1.87 1.88 1.88 1.89 1.89 1.78 1.73 1.72 1.70 1.71 1.75 1.76 1.77 1.76 1.75 1.73 1.68 1.69 1.70 1.74 1.72 1.72 1.70 1.65 1.59 1.55 1.48 1.41 1.40 1.38 1.37 1.33 1.25 1.19 1.17 1.17 1.17 1.12 1.14 1.08 1.04 1.08 1.07 1.02 0.97 0.92 0.88 0.90 0.89 0.89 0.87 0.89
1.55 1.50 1.51 1.53 1.54 1.50 1.48 1.47 1.45 1.42 1.37 1.34 1.32 1.33 1.36 1.40 1.44 1.48 1.51 1.51 1.57 1.52 1.43 1.44 1.49 1.54 1.61 1.63 1.65 1.68 1.72 1.76 1.79 1.80 1.81 1.83 1.85 1.86 1.82 1.80 1.77 1.75 1.73 1.72 1.72 1.69 1.66 1.64 1.64 1.65 1.65 1.65 1.65 1.66 1.67 1.61 1.57 1.53 1.52 1.52 1.47 1.41 1.36 1.31 1.25 1.19 1.13 1.15 1.19 1.17 1.13 1.12 1.09 1.05 1.03 1.02 0.98 0.95 0.91 0.88 0.91 0.90 0.91 0.89 0.92
1.43 1.48 1.56 1.61 1.60 1.54 1.48 1.44 1.38 1.36 1.32 1.30 1.31 1.32 1.31 1.34 1.36 1.39 1.44 1.43 1.35 1.33 1.33 1.36 1.39 1.43 1.43 1.48 1.59 1.62 1.64 1.69 1.71 1.72 1.73 1.74 1.77 1.79 1.77 1.70 1.71 1.69 1.72 1.74 1.71 1.66 1.62 1.62 1.61 1.59 1.60 1.58 1.56 1.58 1.59 1.57 1.59 1.54 1.49 1.47 1.45 1.42 1.33 1.22 1.17 1.19 1.21 1.24 1.22 1.17 1.09 1.10 1.08 1.09 1.02 1.00 0.96 0.93 0.92 0.91 0.91 0.91 0.93 0.94 0.92
1.49 1.48 1.49 1.54 1.57 1.58 1.51 1.41 1.38 1.35 1.31 1.30 1.31 1.30 1.28 1.29 1.32 1.35 1.29 1.25 1.25 1.25 1.30 1.34 1.33 1.33 1.37 1.44 1.49 1.56 1.59 1.55 1.54 1.54 1.58 1.59 1.61 1.63 1.67 1.63 1.61 1.65 1.67 1.64 1.59 1.58 1.56 1.51 1.49 1.51 1.55 1.60 1.64 1.69 1.70 1.66 1.63 1.55 1.51 1.46 1.41 1.35 1.29 1.28 1.27 1.26 1.26 1.24 1.19 1.15 1.13 1.13 1.11 1.08 1.01 0.98 0.98 0.95 0.95 0.94 0.95 0.92 0.92 0.91 0.92
1.58 1.56 1.58 1.60 1.60 1.56 1.49 1.45 1.41 1.35 1.33 1.30 1.29 1.30 1.27 1.27 1.24 1.22 1.22 1.19 1.18 1.21 1.26 1.29 1.32 1.35 1.41 1.45 1.47 1.52 1.48 1.48 1.51 1.53 1.50 1.49 1.55 1.62 1.61 1.56 1.59 1.60 1.56 1.50 1.47 1.49 1.53 1.62 1.70 1.67 1.62 1.62 1.63 1.60 1.58 1.56 1.57 1.50 1.46 1.45 1.42 1.39 1.36 1.38 1.37 1.32 1.28 1.24 1.19 1.17 1.14 1.12 1.10 1.05 1.03 1.01 0.98 0.96 0.96 0.96 0.96 0.96 0.96 0.94 0.95
1.64 1.63 1.62 1.59 1.56 1.54 1.47 1.42 1.37 1.34 1.33 1.33 1.33 1.32 1.29 1.29 1.29 1.28 1.26 1.23 1.23 1.26 1.30 1.34 1.36 1.40 1.45 1.47 1.50 1.52 1.48 1.44 1.43 1.40 1.38 1.38 1.43 1.45 1.47 1.50 1.50 1.49 1.48 1.48 1.50 1.53 1.56 1.58 1.61 1.59 1.56 1.53 1.52 1.55 1.57 1.56 1.50 1.45 1.44 1.43 1.39 1.36 1.37 1.38 1.37 1.36 1.30 1.21 1.17 1.16 1.15 1.12 1.11 1.06 1.05 1.08 1.04 0.94 1.01 1.04 1.04 1.04 1.02 1.01 1.00
1.60 1.57 1.57 1.57 1.55 1.45 1.36 1.32 1.33 1.34 1.34 1.34 1.34 1.34 1.34 1.34 1.35 1.35 1.35 1.35 1.36 1.38 1.39 1.39 1.41 1.44 1.45 1.45 1.45 1.44 1.38 1.32 1.31 1.37 1.43 1.44 1.38 1.39 1.47 1.51 1.54 1.59 1.63 1.61 1.56 1.53 1.54 1.52 1.51 1.49 1.43 1.44 1.47 1.53 1.57 1.53 1.48 1.43 1.41 1.40 1.40 1.39 1.36 1.35 1.36 1.32 1.26 1.19 1.18 1.17 1.16 1.16 1.15 1.11 1.05 0.99 1.04 1.09 1.08 1.07 1.06 1.06 1.05 1.04 1.03
1.59 1.56 1.54 1.52 1.48 1.40 1.35 1.34 1.36 1.36 1.35 1.34 1.34 1.36 1.37 1.36 1.36 1.36 1.36 1.37 1.38 1.39 1.40 1.40 1.40 1.42 1.42 1.45 1.45 1.43 1.44 1.50 1.57 1.55 1.45 1.39 1.35 1.37 1.41 1.46 1.54 1.61 1.65 1.65 1.62 1.58 1.53 1.47 1.43 1.42 1.43 1.45 1.46 1.46 1.46 1.43 1.41 1.40 1.41 1.41 1.38 1.33 1.31 1.28 1.23 1.19 1.17 1.16 1.16 1.19 1.18 1.17 1.16 1.16 1.13 1.13 1.10 1.10 1.08 1.09 1.09 1.09 1.09 1.07 1.06
1.48 1.50 1.52 1.50 1.45 1.41 1.40 1.40 1.39 1.39 1.38 1.38 1.38 1.37 1.36 1.34 1.32 1.32 1.33 1.36 1.40 1.44 1.47 1.50 1.50 1.50 1.55 1.58 1.49 1.45 1.52 1.58 1.58 1.52 1.45 1.42 1.43 1.45 1.48 1.50 1.52 1.51 1.49 1.48 1.47 1.48 1.46 1.44 1.41 1.39 1.38 1.36 1.37 1.39 1.40 1.39 1.37 1.34 1.29 1.25 1.22 1.22 1.19 1.14 1.11 1.09 1.09 1.11 1.12 1.12 1.12 1.12 1.11 1.09 1.08 1.08 1.09 1.09 1.09 1.09 1.09 1.09 1.09 1.08 1.07
1.37 1.35 1.38 1.41 1.40 1.36 1.35 1.37 1.39 1.40 1.41 1.40 1.38 1.37 1.36 1.32 1.32 1.36 1.40 1.42 1.44 1.47 1.47 1.46 1.47 1.48 1.52 1.45 1.42 1.42 1.44 1.45 1.46 1.43 1.39 1.40 1.42 1.45 1.47 1.47 1.46 1.45 1.44 1.42 1.42 1.41 1.40 1.38 1.37 1.35 1.34 1.36 1.40 1.40 1.38 1.32 1.28 1.26 1.25 1.23 1.19 1.16 1.14 1.11 1.10 1.11 1.11 1.10 1.08 1.08 1.07 1.07 1.07 1.07 1.06 1.06 1.06 1.06 1.06 1.07 1.08 1.08 1.08 1.09 1.09
1.32 1.29 1.28 1.28 1.28 1.29 1.28 1.29 1.32 1.35 1.35 1.35 1.33 1.33 1.36 1.37 1.38 1.39 1.40 1.41 1.44 1.43 1.40 1.40 1.41 1.46 1.51 1.50 1.49 1.51 1.49 1.42 1.39 1.40 1.40 1.40 1.40 1.40 1.39 1.38 1.37 1.37 1.37 1.39 1.40 1.41 1.39 1.38 1.35 1.34 1.32 1.31 1.31 1.30 1.26 1.23 1.22 1.21 1.19 1.17 1.16 1.14 1.12 1.11 1.11 1.10 1.09 1.07 1.04 1.02 1.01 0.99 0.98 0.98 0.98 0.98 0.98 1.00 1.02 1.06 1.06 1.08 1.09 1.10 1.09
1.27 1.26 1.25 1.25 1.22 1.21 1.21 1.25 1.27 1.28 1.29 1.31 1.31 1.31 1.29 1.31 1.35 1.36 1.35 1.35 1.37 1.37 1.36 1.36 1.36 1.36 1.38 1.40 1.38 1.35 1.34 1.32 1.31 1.31 1.30 1.29 1.28 1.27 1.27 1.28 1.29 1.31 1.33 1.35 1.36 1.36 1.35 1.33 1.32 1.30 1.29 1.28 1.27 1.23 1.20 1.19 1.19 1.18 1.18 1.16 1.14 1.12 1.11 1.10 1.10 1.12 1.11 1.08 1.04 1.01 1.00 0.97 0.96 0.96 0.97 0.97 0.96 0.97 0.99 0.99 1.01 1.04 1.07 1.09 1.09
1.23 1.22 1.22 1.21 1.20 1.17 1.17 1.17 1.19 1.22 1.25 1.26 1.27 1.27 1.27 1.26 1.25 1.24 1.23 1.24 1.26 1.26 1.25 1.25 1.24 1.25 1.25 1.27 1.29 1.28 1.25 1.22 1.22 1.21 1.20 1.20 1.21 1.23 1.25 1.26 1.26 1.27 1.29 1.29 1.30 1.30 1.29 1.27 1.26 1.25 1.25 1.23 1.22 1.21 1.20 1.20 1.19 1.18 1.16 1.16 1.16 1.14 1.12 1.10 1.11 1.12 1.11 1.08 1.08 1.06 1.03 1.00 0.99 0.98 0.96 0.96 0.97 0.98 0.97 0.98 1.00 1.00 1.00 1.00 1.00
1.23 1.22 1.19 1.18 1.15 1.14 1.13 1.13 1.13 1.15 1.16 1.17 1.18 1.19 1.19 1.19 1.19 1.21 1.22 1.22 1.21 1.22 1.21 1.19 1.17 1.17 1.18 1.20 1.21 1.20 1.20 1.21 1.21 1.21 1.22 1.22 1.23 1.23 1.24 1.24 1.23 1.23 1.22 1.20 1.20 1.21 1.21 1.21 1.21 1.21 1.21 1.20 1.19 1.18 1.17 1.16 1.15 1.14 1.15 1.15 1.13 1.12 1.11 1.11 1.11 1.11 1.09 1.10 1.14 1.11 1.07 1.04 1.02 1.00 1.00 1.00 1.01 1.03 1.02 1.02 1.02 1.01 1.00 1.00 1.00
1.20 1.21 1.20 1.19 1.16 1.14 1.14 1.15 1.15 1.14 1.12 1.10 1.09 1.09 1.10 1.12 1.13 1.14 1.15 1.14 1.15 1.15 1.15 1.15 1.14 1.14 1.15 1.15 1.16 1.18 1.20 1.20 1.21 1.21 1.22 1.22 1.22 1.21 1.21 1.20 1.20 1.20 1.19 1.18 1.18 1.17 1.16 1.16 1.15 1.15 1.15 1.14 1.14 1.14 1.14 1.14 1.15 1.15 1.14 1.12 1.13 1.13 1.13 1.11 1.11 1.09 1.09 1.11 1.11 1.09 1.09 1.07 1.08 1.08 1.08 1.07 1.06 1.06 1.04 1.02 1.01 1.00 1.00 1.01 1.02
1.21 1.20 1.20 1.19 1.19 1.18 1.16 1.14 1.12 1.11 1.09 1.07 1.06 1.06 1.07 1.09 1.10 1.11 1.12 1.12 1.13 1.15 1.17 1.20 1.21 1.19 1.19 1.21 1.21 1.20 1.20 1.21 1.20 1.18 1.17 1.18 1.18 1.17 1.15 1.15 1.14 1.14 1.13 1.13 1.12 1.12 1.13 1.13 1.13 1.13 1.13 1.13 1.13 1.11 1.09 1.09 1.08 1.06 1.05 1.05 1.07 1.09 1.10 1.11 1.11 1.11 1.11 1.11 1.14 1.13 1.10 1.10 1.09 1.10 1.10 1.09 1.08 1.07 1.05 1.04 1.03 1.02 1.01 1.01 1.01
Wind_Speed
31 31 31 30 30 30 30 29 28 28 27 27 26 25 25 24 24 23 22 22 21 20 20 19 18 17 16 16 15 14 14 13 12 12 11 11 11 11 10 10 10 9 9 8 8 8 8 8 7 7 7 6 6 6 6 5 5 5 4 4 4 4 4 4 4 5 5 6 7 7 8 8 9 10 11 12 13 14 15 17 18 19 20 21 22
31 31 31 31 31 31 31 30 29 28 28 27 27 26 25 25 24 24 23 23 22 21 21 20 19 18 17 16 16 15 15 14 14 13 13 12 12 12 11 11 11 11 10 10 10 9 9 9 8 8 8 8 7 7 7 6 6 6 5 5 5 5 5 5 6 6 6 7 7 8 9 9 11 12 13 14 15 16 17 19 20 21 22 23 24
31 31 31 31 31 31 31 31 30 29 29 28 27 27 26 25 25 25 24 24 23 23 22 21 20 19 18 17 17 16 15 15 15 14 14 14 14 13 13 12 12 12 12 11 11 11 10 10 9 9 9 9 9 8 8 8 7 7 7 7 7 6 6 7 7 7 8 8 8 9 10 11 12 13 15 16 17 18 19 20 21 22 23 25 26
30 31 31 32 32 32 32 32 31 30 29 29 28 28 27 26 25 25 25 24 24 24 23 22 21 20 19 18 18 17 16 16 16 15 15 15 15 14 14 14 14 13 13 13 12 12 12 11 10 10 10 10 10 9 9 9 8 8 8 8 8 8 8 8 8 8 9 9 10 11 12 13 14 15 17 18 18 19 20 21 22 23 25 26 26
30 31 32 32 32 32 32 32 32 31 31 30 29 29 28 27 26 26 26 25 25 25 24 23 22 21 20 19 19 18 17 17 17 16 16 15 15 15 15 15 15 15 14 14 14 13 13 12 12 11 11 11 11 11 10 10 10 9 9 9 9 9 8 8 9 9 10 11 12 13 14 15 16 17 17 18 19 20 21 22 23 24 25 26 26
29 30 31 32 32 32 32 32 32 32 31 31 30 30 29 28 27 27 26 26 26 26 25 25 24 23 22 20 19 19 18 18 17 17 16 16 16 16 16 16 16 15 15 15 15 14 14 14 13 13 13 12 12 12 12 11 11 11 11 10 10 10 9 10 10 11 11 12 13 14 15 15 16 17 17 18 19 20 21 22 22 23 25 26 27
29 29 30 31 32 32 32 32 32 32 32 31 31 30 30 29 28 28 27 27 27 26 26 26 25 24 23 22 20 20 19 19 18 18 17 17 17 17 16 16 16 16 16 16 15 15 15 15 14 14 14 14 13 13 13 13 12 12 12 11 11 11 11 11 11 12 12 13 14 14 15 15 16 17 17 18 19 20 21 22 23 24 25 27 29
29 29 30 30 31 31 32 32 32 32 32 32 32 31 30 30 29 28 28 27 27 27 27 26 26 25 24 23 22 21 20 20 19 19 18 18 18 17 17 17 17 16 16 16 16 16 16 16 15 15 15 15 14 14 14 14 13 13 13 12 12 12 12 12 12 12 13 13 14 14 15 16 16 17 17 18 19 20 21 22 24 26 27 29 31
30 30 30 30 30 30 31 31 32 32 32 32 32 31 31 30 30 29 28 28 27 27 27 27 26 26 25 24 23 22 21 20 20 19 19 19 19 18 18 18 17 17 17 17 17 17 17 17 16 16 16 15 15 15 15 15 14 14 13 13 13 13 13 12 12 12 13 13 14 15 15 16 16 17 17 18 19 21 22 23 25 27 29 31 32
30 30 30 30 30 30 30 30 31 32 32 32 32 32 31 31 30 30 29 28 28 27 27 27 26 26 25 24 24 23 22 21 21 20 20 20 19 19 18 18 18 18 18 18 18 18 18 17 17 17 17 16 16 16 16 16 15 15 14 14 14 13 13 13 12 12 13 14 15 15 16 16 17 17 18 19 21 22 23 25 27 29 30 31 31
31 31 31 30 30 30 30 30 30 31 32 32 32 32 31 31 31 30 30 29 28 28 27 27 27 26 26 25 24 23 23 22 21 21 21 21 20 19 19 19 19 19 19 19 19 18 18 18 18 18 17 17 17 17 17 17 16 16 15 15 15 14 14 13 13 13 13 14 15 16 16 17 17 18 19 20 21 23 25 27 28 29 30 31 32
31 31 30 30 30 30 29 30 30 31 31 32 31 31 31 31 30 30 30 29 29 28 28 28 27 27 26 25 25 24 23 23 22 22 22 22 21 20 19 19 19 19 19 19 19 19 19 19 18 18 18 18 18 17 17 17 17 16 16 15 15 15 15 15 15 15 15 15 16 16 16 17 18 19 20 21 22 25 27 28 28 29 30 31 33
31 31 31 31 30 30 30 30 30 30 31 31 31 31 31 31 30 30 30 29 29 29 28 28 28 27 26 26 25 25 24 23 23 23 23 22 22 21 21 20 20 20 20 20 20 20 19 19 19 19 18 18 18 18 17 17 17 17 16 16 15 15 16 16 16 16 16 16 17 17 17 18 19 21 22 22 24 26 27 27 28 29 31 33 34
31 31 31 31 30 30 30 30 30 30 31 31 31 31 31 31 30 30 29 29 29 29 29 29 28 28 27 26 26 25 24 23 23 23 23 23 22 22 21 21 21 21 21 21 20 20 20 20 20 19 19 19 18 18 18 17 17 16 16 15 15 15 15 16 16 16 16 16 17 18 19 20 21 23 24 24 24 26 27 28 29 30 32 34 35
32 31 31 31 30 30 30 30 31 30 31 31 31 31 31 31 31 30 30 29 29 29 29 29 28 28 27 27 26 26 25 24 24 24 24 23 23 22 22 22 22 22 21 21 21 21 20 20 20 20 19 19 18 18 18 17 17 16 16 15 15 15 15 15 15 15 15 16 17 18 20 21 22 24 26 25 25 26 27 29 30 31 32 34 35
32 32 31 31 30 31 31 31 31 31 31 31 31 31 31 31 30 30 30 29 29 29 29 29 28 28 28 27 27 27 26 25 25 24 24 24 23 22 22 22 22 22 22 21 21 21 21 21 21 20 20 19 19 18 18 18 17 17 16 16 16 15 15 15 15 15 16 17 18 19 20 22 23 26 27 27 27 27 28 29 30 30 32 33 35
33 32 31 31 31 31 31 31 31 31 31 31 31 31 30 30 30 30 30 30 29 29 29 29 29 29 28 28 28 27 26 25 25 25 25 24 23 23 22 22 22 22 22 22 21 21 21 21 21 21 20 20 19 19 19 19 18 18 17 17 16 15 15 15 16 16 17 18 19 20 22 23 25 27 28 28 27 28 28 29 29 30 31 33 34
33 32 31 31 30 30 31 31 31 30 30 30 30 30 30 30 30 30 30 30 29 29 29 28 28 29 29 28 28 27 26 26 26 25 25 24 23 23 22 22 22 22 22 22 22 21 21 22 22 21 21 20 19 19 19 19 19 19 18 17 16 15 15 16 16 17 17 18 19 21 22 24 25 26 27 27 27 27 28 28 29 30 31 33 35
33 31 31 31 30 30 30 30 30 30 30 30 30 30 30 29 29 29 29 29 29 29 28 28 28 28 28 28 28 27 27 26 25 25 25 24 24 23 22 22 22 23 22 22 22 22 22 22 22 23 22 21 20 20 20 20 20 19 18 17 16 16 16 16 17 17 18 19 21 22 23 24 25 25 25 26 26 26 26 27 29 30 31 34 36
32 31 31 30 30 30 30 30 30 30 30 30 29 29 29 29 29 29 28 29 29 29 29 28 28 28 28 27 27 27 27 26 25 25 25 24 25 24 23 23 23 23 23 23 22 22 22 22 22 23 23 23 22 21 21 21 21 20 19 17 17 16 16 17 17 19 20 22 23 23 24 24 25 25 25 25 25 24 25 27 29 30 32 34 36
31 30 30 30 29 29 29 29 29 29 29 29 29 29 28 28 28 28 28 28 28 28 28 28 28 28 27 27 27 26 26 26 25 25 25 25 25 25 24 23 23 23 23 23 23 23 23 23 23 23 23 23 23 22 21 22 21 20 20 19 18 17 18 19 19 20 22 22 23 23 23 24 24 24 24 24 24 25 26 28 29 31 32 34 36
30 29 29 29 29 29 29 29 28 28 28 28 28 28 28 28 28 27 28 28 28 28 28 28 27 27 26 26 26 26 26 26 25 25 26 26 26 25 25 25 24 24 23 23 23 23 23 23 23 23 23 23 22 22 21 21 21 21 21 20 19 19 20 21 21 22 22 23 22 23 23 23 24 23 24 24 25 26 28 28 29 31 32 34 35
29 28 28 28 28 28 28 28 28 28 28 28 28 27 27 27 27 27 27 27 27 27 27 27 27 26 26 25 25 25 25 25 25 26 26 26 26 26 26 26 25 25 24 24 23 23 23 23 23 23 23 22 22 21 21 21 21 21 21 21 20 21 21 22 22 23 23 22 22 23 23 23 23 23 24 25 26 27 27 28 29 31 32 33 34
28 28 28 28 28 28 28 28 28 28 28 28 28 27 27 27 27 27 27 26 26 26 26 26 26 26 25 25 24 24 24 24 25 25 26 26 26 26 27 27 26 25 25 24 23 23 23 23 22 22 22 22 21 21 21 21 21 21 21 21 21 21 22 22 23 23 22 22 22 23 23 23 24 24 25 26 26 27 28 28 29 30 31 32 33
28 28 28 28 28 28 28 28 28 28 28 28 28 27 27 27 27 27 27 26 26 26 26 26 25 25 25 25 24 24 24 24 24 24 25 26 26 26 26 26 26 26 25 25 24 23 22 22 21 21 21 21 21 21 21 21 21 21 21 22 22 22 23 23 23 22 22 22 23 23 23 24 24 25 25 26 27 27 28 28 29 30 31 32 33
29 28 28 28 28 29 28 28 28 28 28 27 27 27 27 27 27 27 27 26 26 26 26 26 25 25 25 25 24 24 24 24 23 23 23 24 25 25 25 26 26 26 26 25 24 23 23 22 22 21 21 21 21 21 22 22 22 22 22 23 23 23 23 23 23 22 22 23 23 23 23 24 25 25 26 27 27 27 27 28 29 30 31 32 33
29 28 28 29 29 29 29 28 27 27 27 27 27 26 26 26 26 26 27 27 26 26 26 25 25 25 25 25 25 25 24 24 23 23 22 23 23 24 24 25 25 25 26 25 25 24 24 23 23 22 22 22 22 22 22 23 23 24 24 24 24 24 24 23 23 23 23 23 23 23 24 25 25 26 26 27 26 26 27 28 29 30 31 32 33
29 29 29 29 29 29 29 28 27 26 26 26 26 26 26 26 26 25 26 26 26 26 25 25 25 25 25 25 25 25 25 25 24 23 22 22 22 23 23 24 25 25 25 25 25 25 24 23 23 23 23 23 23 23 23 24 24 25 25 25 24 24 24 24 23 23 23 24 24 24 24 25 25 26 26 26 26 26 27 28 29 30 32 32 33
29 29 29 29 29 28 28 28 27 26 26 26 26 25 25 25 25 25 25 25 25 25 25 24 24 25 25 25 25 25 25 25 25 24 23 22 22 22 22 23 24 25 25 25 24 24 24 24 24 24 24 24 24 24 24 25 25 25 25 25 24 24 24 24 24 24 24 25 25 25 25 25 25 26 26 26 26 26 27 28 29 31 32 32 33
29 29 29 28 28 28 28 27 27 26 25 25 25 25 24 24 24 24 24 24 25 25 24 24 24 24 24 24 24 24 24 24 24 24 24 23 23 22 22 22 23 23 24 24 24 24 25 25 25 25 25 25 25 25 25 26 26 25 25 25 25 25 25 24 24 24 25 25 25 25 25 25 26 26 26 26 26 27 28 28 30 31 31 32 33
29 28 28 27 27 27 27 27 27 26 25 25 25 24 24 24 23 22 23 23 24 24 24 23 23 22 23 23 23 23 23 22 23 24 24 24 24 24 23 23 22 22 23 24 24 25 26 26 25 25 25 25 25 25 26 26 26 26 25 25 25 25 25 24 25 25 25 25 25 25 25 25 26 26 26 26 27 27 28 29 30 30 31 32 33
29 28 27 27 27 27 26 26 25 25 25 25 24 23 23 24 23 23 22 22 22 23 23 23 23 22 22 23 23 23 23 23 23 24 24 24 24 24 24 24 23 23 24 24 24 25 25 25 25 25 26 26 26 26 27 27 26 26 25 25 25 25 25 25 25 25 25 25 25 25 26 26 26 26 26 27 27 28 28 29 30 30 31 32 33
29 28 27 27 26 26 26 25 25 25 25 25 25 24 23 24 24 24 23 23 22 22 22 23 23 23 23 23 24 24 24 24 24 24 24 24 23 23 24 24 24 24 24 24 25 25 25 25 25 25 25 25 26 26 26 26 26 25 25 25 25 25 25 25 25 25 25 25 26 26 26 26 26 26 27 27 27 28 28 29 30 30 31 32 33
29 28 28 28 28 28 28 27 26 26 26 26 26 25 25 25 25 24 24 25 25 24 23 23 23 23 24 24 24 24 25 25 25 24 24 24 23 23 23 23 23 24 24 25 25 25 25 25 25 25 25 25 26 26 25 25 25 25 24 24 24 25 25 25 26 26 26 26 26 26 26 26 26 27 27 27 27 28 28 29 30 30 31 32 33
27 26 26 26 27 27 27 27 27 27 27 27 27 27 27 27 27 26 26 26 27 27 26 25 24 24 24 24 25 25 25 25 25 25 24 24 24 24 24 23 23 24 25 25 25 25 25 25 25 25 25 26 25 25 25 25 25 25 24 25 25 25 26 26 27 27 27 26 26 26 26 27 27 27 27 27 27 28 28 29 30 30 31 32 33
26 25 24 25 25 24 25 25 25 25 26 26 27 28 28 28 28 28 27 28 28 27 27 26 25 25 25 25 25 25 25 25 25 24 24 24 25 25 25 24 24 24 24 24 24 24 24 24 24 24 25 25 25 25 25 25 25 25 25 26 26 26 26 27 27 27 27 26 27 27 27 27 28 27 27 27 28 28 29 29 30 30 31 32 32
25 24 24 23 23 23 23 23 24 24 25 25 26 26 26 27 27 27 28 28 28 27 27 27 27 26 26 26 26 25 25 25 24 24 25 25 25 26 25 25 25 25 24 24 24 24 25 25 25 25 25 25 25 25 25 25 25 25 25 26 26 26 27 27 27 27 27 27 27 27 27 28 28 27 27 28 28 29 29 29 30 31 31 32 33
25 24 23 22 22 23 23 23 23 24 24 25 25 25 25 26 27 27 27 27 26 26 27 27 27 26 26 26 26 26 25 25 25 25 25 26 26 26 26 25 25 25 25 25 26 26 26 26 25 25 25 25 25 26 25 25 25 25 26 26 27 27 27 28 28 28 28 28 27 28 28 27 27 27 27 28 29 29 29 30 30 31 32 32 33
24 24 23 23 23 23 22 23 23 23 24 24 24 25 25 25 26 26 26 26 26 26 26 26 26 26 26 26 26 26 26 25 25 26 26 26 26 26 25 25 25 25 25 24 24 24 24 24 23 23 23 24 24 25 25 25 25 26 26 27 27 27 27 27 27 28 28 27 27 27 27 27 27 28 28 29 29 29 30 30 31 31 32 33 33
24 24 24 23 23 22 21 22 23 23 23 23 23 23 24 24 24 24 25 25 25 25 25 25 25 25 25 25 26 26 26 26 26 26 26 26 25 25 24 24 24 24 23 23 22 22 22 22 21 21 21 23 24 24 25 25 25 26 26 27 26 26 26 26 26 26 27 27 27 27 28 28 28 29 29 29 30 30 31 31 32 32 33 33 34
25 25 24 24 22 21 21 21 21 21 21 21 21 21 22 22 23 23 23 23 23 23 23 23 23 23 24 24 24 24 25 25 25 25 24 24 23 23 23 23 23 23 22 22 21 21 21 21 21 21 21 23 24 25 25 26 26 26 26 26 26 26 26 26 26 26 27 27 28 28 28 29 29 29 30 30 31 31 32 33 33 34 34 35 35
25 24 23 23 22 21 21 20 19 19 19 19 19 20 21 21 22 22 22 22 22 22 22 22 21 22 22 22 22 22 23 23 23 23 22 22 22 22 22 22 22 22 22 21 21 21 21 21 22 22 22 23 24 24 25 25 25 25 25 25 25 25 25 26 26 27 27 28 28 29 29 29 30 30 31 31 32 33 33 34 35 35 35 36 36
25 24 23 23 22 22 21 20 19 19 18 18 18 19 20 20 21 21 21 22 21 21 21 21 20 20 20 20 20 20 21 21 21 21 21 21 21 21 21 21 21 21 21 21 20 20 21 21 22 23 23 23 24 24 24 24 24 24 25 25 25 26 26 26 26 27 27 28 29 29 30 30 31 31 32 33 33 34 35 35 36 36 36 36 36
25 24 23 23 22 22 21 21 20 19 18 17 17 18 19 19 20 21 21 21 21 20 20 20 20 20 20 19 19 19 20 21 20 20 19 19 19 19 19 19 19 20 20 20 20 21 21 22 22 22 23 23 23 23 23 23 24 24 25 25 26 26 26 26 27 27 28 29 29 30 31 31 32 33 33 34 35 35 36 36 36 37 37 37 37
25 24 24 23 23 22 21 21 20 19 18 18 17 17 17 18 19 19 20 20 20 20 20 20 20 20 19 19 18 18 19 19 19 18 18 18 18 19 19 19 19 20 20 21 21 21 21 21 22 22 23 23 23 23 23 24 24 25 25 26 26 26 27 27 28 28 29 30 31 31 32 32 33 34 34 35 35 36 36 36 37 37 37 37 37
25 24 24 23 23 22 21 21 20 20 19 18 17 17 17 18 18 19 19 20 20 20 20 20 20 20 19 18 18 18 18 18 18 18 18 19 19 19 19 20 20 20 21 21 21 21 21 21 22 22 22 23 23 23 23 24 24 25 25 26 26 27 28 28 29 30 31 32 32 33 33 34 34 35 35 35 36 36 36 37 37 38 38 38 38
24 24 24 23 23 22 21 21 20 20 19 19 18 18 17 18 18 19 19 19 20 20 20 19 19 19 19 18 18 19 19 19 19 19 19 19 20 20 20 20 20 20 20 21 21 21 22 22 22 22 23 23 23 24 24 24 25 25 26 27 28 29 29 30 31 32 32 33 33 34 34 35 35 35 36 36 36 36 37 37 37 38 38 38 38
23 23 24 23 23 23 22 21 20 20 20 20 19 19 18 19 19 19 19 19 19 19 19 19 19 19 19 19 19 19 19 19 19 19 19 19 20 20 20 20 21 21 21 21 22 22 22 22 23 23 23 24 24 24 25 25 26 27 27 28 29 30 31 32 33 33 34 34 35 35 36 36 36 36 37 37 37 37 37 37 37 37 37 37 37
23 23 24 23 23 23 23 22 21 21 21 21 21 20 20 20 20 20 20 20 20 20 20 20 19 19 19 19 19 19 19 19 18 19 19 19 20 20 21 21 21 21 22 22 22 22 22 23 23 24 24 24 25 25 26 27 27 28 29 30 30 31 32 33 34 34 35 36 36 36 36 37 37 37 37 37 37 37 37 37 37 36 36 36 35
24 24 24 24 24 24 23 23 23 22 22 22 22 22 22 22 21 21 21 21 21 20 20 20 20 20 19 19 19 19 19 19 18 19 19 20 20 21 21 21 22 22 22 23 23 23 24 24 24 25 25 26 26 27 27 28 29 29 30 31 32 33 33 34 35 35 36 36 37 37 37 38 38 38 38 37 37 37 36 36 35 35 35 35 34
25 25 25 25 25 25 25 25 25 25 24 24 24 24 24 24 23 23 23 23 22 22 21 21 21 21 21 20 20 19 19 19 19 20 20 21 21 21 22 22 22 23 23 24 24 24 25 25 25 26 26 27 27 28 28 29 30 31 32 32 33 34 35 35 36 36 37 37 38 38 38 38 38 38 37 37 37 36 36 35 35 35 35 35 35
Wind_Direction
209 210 211 211 211 211 211 210 210 211 212 212 212 212 213 213 214 215 215 215 214 212 211 210 210 210 211 212 214 216 218 220 221 223 224 225 225 225 226 227 229 231 233 235 237 239 241 242 244 246 248 250 252 253 255 256 257 261 264 266 269 270 270 274 279 285 290 295 300 304 307 310 310 310 310 311 312 311 310 310 311 310 310 309 308
209 210 211 211 211 211 212 212 211 212 212 212 212 212 213 214 214 215 215 215 214 213 213 212 212 212 213 215 216 218 221 222 224 226 228 228 228 229 229 230 231 234 236 237 240 243 245 247 247 248 249 251 252 253 255 255 255 256 258 261 266 269 268 271 280 285 288 292 295 298 302 305 306 307 307 308 310 311 311 311 310 310 311 310 310
210 210 211 212 212 212 213 213 212 212 212 213 213 213 214 215 214 214 215 215 215 214 214 214 213 213 214 217 219 221 223 225 227 230 231 231 232 232 233 232 233 236 237 238 240 243 247 249 250 250 251 251 251 253 255 255 255 255 256 259 264 268 269 272 277 284 289 292 293 296 299 301 302 304 306 307 309 310 311 311 311 312 313 313 313
211 211 211 212 212 213 213 213 213 213 213 214 214 214 215 216 215 215 215 215 215 215 215 215 215 215 217 220 221 223 225 227 230 232 233 233 234 234 235 235 236 238 239 240 242 244 247 250 253 252 252 252 252 252 253 254 255 257 259 260 263 267 271 272 275 280 286 290 292 296 299 301 303 305 307 308 309 309 310 311 312 314 315 316 316
212 212 212 212 213 213 214 214 214 214 214 215 215 215 215 216 216 216 216 216 216 216 216 216 217 218 220 222 224 225 226 228 231 233 234 234 234 235 235 236 238 239 241 242 243 246 248 250 253 253 252 252 253 253 253 252 254 257 260 262 265 267 269 272 276 279 282 286 291 295 299 302 304 306 307 309 310 310 310 312 314 316 318 318 316
212 213 214 213 213 214 214 215 215 215 215 216 216 216 216 216 217 217 217 217 217 217 217 217 219 220 223 224 225 226 228 229 231 233 235 235 234 235 236 237 239 240 242 243 245 247 249 250 252 253 253 253 252 253 253 252 253 256 259 262 265 267 269 273 277 280 282 287 292 296 300 303 305 307 309 311 312 313 314 315 317 318 319 319 318
212 214 215 215 214 215 215 215 216 216 215 216 216 216 216 216 217 218 218 218 218 218 218 219 220 222 224 226 227 228 230 231 233 234 235 235 235 235 236 238 240 241 243 244 246 248 250 251 252 253 254 253 252 252 252 252 254 257 259 262 264 267 271 274 278 281 285 289 294 297 301 304 307 310 312 313 313 315 317 318 319 320 320 319 319
214 215 216 216 216 216 215 216 216 216 216 216 217 217 217 217 217 218 219 219 220 220 220 221 222 224 225 227 228 229 231 233 234 235 235 236 236 237 238 239 241 242 244 245 247 249 251 252 254 254 255 254 253 251 251 253 255 257 259 261 264 267 272 275 279 283 287 290 294 298 302 305 308 310 313 315 315 316 318 319 318 319 320 319 319
214 216 217 217 217 216 216 216 216 217 216 216 217 218 218 218 218 219 220 220 221 221 222 222 223 224 225 227 228 230 232 234 235 235 235 236 236 238 239 240 241 243 245 246 248 249 252 253 254 255 255 255 253 251 251 253 255 257 259 261 263 267 270 274 278 282 287 291 295 298 302 305 307 310 313 316 316 316 317 318 316 317 320 320 321
215 217 218 218 217 216 216 216 216 216 217 217 216 217 218 219 219 220 220 221 222 222 223 223 224 225 226 227 228 230 233 235 235 235 235 235 236 238 240 241 242 243 245 247 249 250 252 254 255 255 255 255 254 253 252 253 254 256 258 260 262 265 268 272 276 281 287 291 295 298 301 303 307 310 313 315 316 316 317 317 317 319 321 322 322
216 218 219 218 218 217 216 216 216 216 217 217 216 217 218 219 220 221 221 221 222 223 224 224 225 226 227 228 229 231 234 235 235 235 235 236 237 238 240 241 243 244 245 247 249 251 252 253 254 256 256 256 255 254 253 252 254 256 257 259 260 262 266 271 276 281 286 290 293 296 299 303 306 310 313 315 317 317 317 317 319 321 322 322 323
216 218 218 218 218 217 216 216 216 216 216 217 217 217 218 220 221 221 221 222 222 223 224 225 226 226 227 229 230 232 234 235 234 235 235 236 237 239 241 242 243 245 246 247 249 251 252 253 254 254 256 256 256 255 253 252 253 254 256 257 259 262 266 270 274 280 284 289 293 296 299 302 305 308 312 315 317 318 318 318 320 321 322 322 322
216 217 218 219 218 217 217 217 217 217 217 217 217 217 219 220 221 221 222 222 223 224 224 225 226 227 228 230 231 233 234 234 234 235 236 237 238 239 241 243 244 245 247 248 249 250 252 253 253 253 254 255 256 255 253 252 253 254 255 257 260 263 266 269 272 277 281 287 291 294 297 301 303 306 310 313 315 317 317 318 320 321 321 322 322
216 217 218 219 219 218 217 217 217 218 218 218 218 218 219 220 221 222 223 223 224 224 225 226 227 228 229 230 232 233 235 234 233 234 235 237 238 240 242 244 245 246 247 248 249 250 251 252 252 252 253 254 254 254 253 252 252 254 255 257 262 265 267 269 272 276 280 285 290 293 297 301 303 306 308 310 314 316 316 318 319 320 321 322 323
215 217 218 219 219 218 217 217 218 218 219 219 219 220 220 220 221 223 224 224 224 225 226 226 228 228 229 231 232 234 235 234 233 234 235 237 238 240 243 244 245 246 247 247 248 249 250 250 251 251 252 252 253 252 252 251 252 253 254 258 262 266 269 271 274 278 283 287 290 293 298 302 305 306 307 309 314 317 317 317 319 320 322 324 325
216 217 219 219 219 219 218 217 218 219 220 220 220 221 221 221 222 223 224 225 225 225 226 227 228 229 230 231 233 235 236 234 233 234 235 237 238 241 242 244 245 246 246 246 247 248 249 249 250 250 250 251 251 250 250 251 251 252 255 258 262 266 270 273 275 279 284 287 290 294 298 302 305 306 307 309 312 316 317 318 319 321 323 326 327
217 218 219 219 220 219 218 218 218 219 220 221 221 221 221 221 222 222 224 224 225 225 226 227 228 229 230 231 233 235 236 234 233 234 236 236 238 240 241 243 244 245 246 246 246 247 248 248 248 248 249 250 250 249 249 250 249 251 255 258 262 266 271 275 278 280 284 288 291 294 299 302 304 306 307 309 311 315 318 319 321 323 325 326 326
218 219 219 220 220 220 219 218 218 219 220 220 221 221 221 221 222 222 223 224 224 225 226 227 229 229 231 232 233 235 236 235 234 235 236 236 237 240 241 242 244 245 245 246 246 247 248 247 247 247 248 249 250 250 249 249 248 250 254 258 261 266 271 277 282 285 287 290 293 295 299 302 304 306 308 309 312 316 318 320 322 324 324 324 325
218 219 219 220 220 220 219 218 218 218 219 220 220 220 220 221 221 221 222 223 224 225 226 227 229 230 231 233 233 235 237 237 235 234 235 235 236 239 241 242 244 244 245 246 246 247 248 248 247 247 248 250 251 251 250 248 248 250 253 257 261 266 272 278 283 287 290 292 295 298 300 303 304 307 310 311 312 315 317 319 321 323 323 324 325
218 219 219 219 220 219 218 217 217 217 218 219 219 220 220 220 221 221 222 223 224 225 226 227 229 231 232 233 234 235 236 237 235 234 234 235 236 238 241 243 244 245 245 246 247 247 248 249 248 247 248 250 252 252 250 247 247 249 252 256 261 266 272 278 283 287 291 293 296 298 300 303 305 309 312 312 313 314 316 319 322 323 324 325 326
217 217 218 218 218 218 217 216 216 216 217 218 218 219 219 220 221 222 222 224 225 226 227 228 230 232 233 234 235 235 236 237 236 235 235 236 236 238 241 243 245 246 247 247 247 248 248 249 249 248 248 250 252 252 249 246 246 249 252 256 261 267 273 277 282 288 291 294 296 297 299 302 306 309 310 311 313 315 317 319 322 324 325 326 327
215 215 215 216 216 215 215 215 215 216 217 217 217 218 219 220 221 222 223 225 225 226 227 229 230 232 233 234 236 237 237 237 237 237 236 237 237 239 241 243 245 246 248 247 248 249 249 249 250 249 248 250 251 250 247 246 246 249 253 257 262 267 272 277 281 286 290 293 295 297 299 302 305 308 309 311 313 315 317 318 320 323 325 326 328
212 212 212 212 212 213 213 213 213 214 215 215 216 217 218 220 221 222 224 225 226 227 228 229 231 232 233 234 235 237 238 238 238 238 238 239 239 240 242 244 245 246 247 248 248 249 249 250 251 250 249 249 249 247 246 246 247 250 254 258 263 268 272 277 281 285 288 291 293 295 298 302 305 307 308 310 312 314 316 317 319 322 325 326 328
210 209 209 209 210 211 212 212 213 215 215 216 217 218 219 221 222 223 225 226 227 228 229 230 231 232 233 234 235 236 238 239 239 239 240 241 241 242 243 244 245 245 246 247 248 249 250 251 250 250 249 248 247 247 248 249 250 252 255 259 263 268 273 277 281 284 287 289 291 293 297 301 304 305 307 309 310 312 314 315 318 321 324 326 328
209 209 209 210 211 212 213 214 216 217 218 218 220 220 222 223 224 225 226 227 228 230 230 231 231 232 233 234 235 236 238 240 241 241 241 242 242 242 242 243 244 244 245 246 248 249 249 250 250 249 248 247 247 249 250 251 252 253 256 260 265 269 274 278 281 284 286 288 290 292 296 300 302 304 305 307 309 310 313 315 317 320 323 326 327
209 210 211 212 213 214 215 216 218 219 219 220 221 222 223 224 226 227 227 228 229 230 231 231 231 232 233 234 235 237 238 240 241 242 242 243 242 242 242 243 243 244 244 246 247 248 248 249 249 248 247 247 249 251 252 252 253 254 257 261 266 271 274 277 280 282 285 288 289 292 296 299 301 302 304 305 307 310 313 314 316 319 323 325 326
209 211 213 214 214 215 216 217 217 218 219 220 221 222 223 224 225 226 227 228 229 230 230 231 231 233 234 235 236 238 238 239 241 242 243 243 243 243 243 244 243 243 244 246 247 248 249 248 248 248 249 250 252 253 253 253 254 256 259 263 268 272 274 277 279 282 285 287 289 292 296 298 299 301 303 305 307 310 312 314 316 319 323 325 327
211 212 213 214 215 215 216 216 216 217 218 219 220 222 223 224 225 226 227 228 229 229 230 231 232 234 235 236 238 239 239 240 240 241 242 243 243 243 244 244 244 244 245 246 247 248 249 248 248 248 250 251 253 253 253 254 256 258 261 265 269 272 274 276 279 281 284 286 288 292 295 296 298 300 302 305 307 309 311 314 316 319 323 325 327
211 213 213 214 215 215 215 216 216 217 218 220 221 223 224 226 227 228 229 229 230 231 232 233 234 235 236 237 238 238 239 240 240 240 242 243 243 244 244 244 244 245 245 245 246 247 248 248 248 249 250 251 253 253 254 255 257 260 263 266 269 271 272 275 278 279 281 284 287 291 293 295 297 300 302 304 306 307 310 313 316 319 323 324 325
211 212 213 213 214 214 215 216 217 218 219 221 222 224 225 226 228 229 230 230 231 232 234 236 237 237 237 237 238 239 240 241 240 240 241 242 243 246 247 246 245 245 244 244 244 246 248 248 249 250 251 252 253 254 255 256 258 261 264 266 268 269 271 273 275 277 279 283 286 289 292 294 297 299 300 302 304 306 309 312 315 319 321 322 324
210 211 211 212 213 214 215 216 217 218 219 220 221 223 224 225 227 228 230 230 231 233 234 236 238 239 238 238 239 239 239 240 241 241 242 243 245 246 247 246 246 245 244 243 245 247 248 249 249 250 251 253 254 255 256 258 260 262 264 265 266 268 270 271 273 275 278 282 285 288 291 293 296 298 299 300 303 306 309 312 315 318 320 320 322
209 209 209 210 210 211 212 213 215 216 217 219 220 221 222 224 225 227 229 230 231 231 233 235 237 239 239 240 240 240 240 241 242 243 244 245 245 245 246 246 245 244 243 243 245 247 248 249 249 250 251 252 253 255 257 259 260 261 262 263 264 266 268 270 272 275 278 281 284 287 289 292 294 296 297 299 302 305 308 311 314 317 318 319 321
209 209 210 210 210 211 213 215 217 218 220 221 222 223 224 225 226 227 229 230 231 232 234 236 238 238 239 240 240 241 241 242 243 244 245 245 245 245 246 246 246 244 243 244 246 247 248 249 250 250 251 252 254 255 257 258 259 259 260 261 262 264 267 269 272 276 278 281 283 285 288 291 293 295 296 299 301 304 306 308 311 315 317 318 320
209 211 214 216 217 219 221 223 225 226 226 227 227 227 227 228 228 229 230 230 232 234 236 239 241 241 241 241 241 241 241 242 243 244 244 245 245 245 246 247 246 245 245 246 247 249 249 250 251 252 252 254 255 256 256 256 256 257 258 259 261 264 268 270 272 275 277 279 282 285 288 290 292 294 296 298 299 302 304 307 309 313 315 317 319
208 212 216 219 221 222 224 226 227 228 229 230 231 232 232 232 232 232 232 233 234 234 237 240 243 243 243 243 242 242 242 242 242 243 243 244 244 244 245 246 246 246 246 247 249 250 251 252 252 253 253 254 255 254 253 253 255 256 257 259 263 266 268 270 272 274 277 279 282 285 288 289 291 293 294 296 298 301 304 306 308 311 314 316 318
210 213 215 217 219 221 223 225 226 228 229 231 233 234 235 234 234 234 235 235 235 236 237 240 242 244 245 244 243 242 242 241 242 243 243 243 244 244 245 247 247 247 248 249 251 252 254 254 254 255 255 254 254 253 254 255 256 258 259 262 265 267 269 271 273 275 278 281 283 285 287 288 290 292 293 294 297 300 303 305 307 309 312 315 317
211 213 215 217 220 222 224 226 228 230 232 233 235 235 234 234 235 235 236 236 236 237 239 240 241 243 244 244 243 242 241 240 241 242 243 244 245 247 248 249 249 250 250 251 253 254 255 256 257 257 257 256 255 255 256 256 257 259 261 264 267 269 271 273 274 276 279 281 282 284 286 287 288 290 291 293 296 298 301 304 306 308 310 313 315
212 213 215 219 222 224 227 229 232 234 235 236 236 236 235 235 236 236 237 237 237 238 239 240 241 242 241 241 241 240 239 239 240 241 242 244 246 248 249 249 250 252 253 253 254 255 256 257 258 257 257 256 256 256 256 256 258 261 263 265 268 271 272 273 275 277 279 280 282 283 285 286 287 288 291 292 295 297 300 302 305 307 309 311 312
214 216 219 223 225 227 229 232 233 235 236 236 236 236 236 236 236 236 237 238 238 238 239 240 241 241 240 238 238 238 238 239 241 242 244 246 248 250 250 250 250 252 253 253 253 254 256 257 257 256 255 254 254 253 254 256 259 262 264 266 269 271 273 274 276 276 277 279 281 283 284 285 286 288 290 292 294 297 299 301 303 305 307 309 311
217 220 223 226 227 229 232 234 234 234 235 235 235 235 234 235 235 235 235 236 236 237 238 238 239 239 238 237 238 239 240 241 242 243 245 247 248 249 249 249 249 251 252 253 253 255 256 256 255 254 254 253 252 253 255 258 261 264 266 268 269 271 273 275 277 277 278 279 282 283 283 285 286 288 290 292 294 296 298 300 301 303 304 306 308
221 221 223 226 228 230 232 232 232 232 232 232 233 233 233 233 233 233 233 233 233 234 235 236 237 237 237 238 239 240 241 240 241 242 243 244 245 246 247 249 250 250 251 252 252 252 254 255 255 256 255 254 254 256 259 262 264 266 267 269 270 272 274 276 277 278 278 280 281 282 283 285 286 288 290 292 294 295 297 298 299 301 302 304 306
222 222 223 226 228 228 228 228 229 230 230 229 230 230 230 231 231 231 231 232 232 233 233 234 234 235 236 236 237 238 238 239 240 241 242 243 244 245 246 248 248 248 250 251 251 251 253 255 256 257 257 258 259 261 263 265 266 266 267 269 272 274 275 276 277 278 279 280 281 282 283 285 286 288 289 291 293 294 296 297 298 300 301 303 305
222 223 225 226 227 226 226 227 228 230 230 229 229 229 229 229 229 230 230 231 231 231 232 232 232 232 232 234 234 235 236 236 238 240 242 243 244 246 247 247 247 247 250 252 252 252 254 255 256 258 260 262 263 264 265 265 266 267 268 270 272 273 274 275 277 278 279 280 281 282 283 285 286 288 289 291 293 294 295 296 297 298 300 302 303
222 223 224 225 225 225 226 228 229 230 230 230 230 230 230 229 229 229 229 229 228 229 230 230 230 230 231 233 235 236 235 236 238 240 242 242 243 245 247 247 247 248 249 251 252 254 255 257 259 260 262 264 264 264 264 264 266 268 269 270 272 273 275 276 278 279 280 281 282 283 284 285 287 288 290 291 292 293 294 295 296 297 299 300 301
220 221 222 223 224 225 227 228 229 229 229 230 230 231 231 230 229 229 228 227 227 228 229 229 231 232 232 234 235 236 235 236 238 241 242 243 244 246 247 249 250 251 252 253 255 257 259 260 261 262 263 264 264 264 264 266 268 269 270 272 274 276 277 278 279 280 281 282 283 284 285 287 288 289 290 291 292 293 293 294 296 297 298 298 299
219 220 221 222 223 225 226 228 229 228 228 229 229 229 229 229 228 228 227 226 226 227 229 229 231 233 233 231 232 233 235 237 241 244 246 248 249 250 252 253 254 255 255 257 258 260 261 262 262 263 264 265 266 266 267 268 270 271 273 274 276 277 278 279 280 281 282 283 284 284 286 287 288 289 290 291 291 292 293 294 295 296 297 297 298
220 220 220 221 222 223 225 227 228 228 228 229 229 229 228 227 226 226 226 226 226 228 229 230 231 233 234 234 235 237 240 242 245 247 248 251 253 254 255 255 255 255 256 258 259 260 262 262 263 264 265 266 266 268 269 271 272 274 275 277 277 278 279 280 281 281 283 283 284 285 286 287 288 289 290 290 291 292 293 294 294 295 296 296 297
221 220 220 221 222 223 225 227 228 228 228 228 229 229 228 228 227 226 226 227 227 228 229 230 232 235 237 239 241 243 244 246 247 248 249 251 254 255 255 256 256 257 258 259 260 262 263 263 264 265 266 267 268 269 271 273 274 276 277 278 279 280 281 281 282 283 283 284 285 285 286 287 287 288 289 290 291 292 293 293 294 295 295 295 295
223 222 222 222 223 224 225 226 226 226 227 226 226 227 228 228 229 228 227 228 228 229 231 234 236 238 241 243 244 246 247 248 249 250 250 251 253 254 255 256 257 258 259 260 262 263 264 265 266 267 268 269 270 271 273 274 276 277 278 279 280 282 283 283 283 284 285 285 285 285 286 286 287 288 289 289 291 291 292 293 293 294 294 294 294
225 224 223 224 224 224 225 225 225 226 226 226 226 227 228 228 229 230 230 230 232 233 236 238 240 241 243 245 247 248 248 249 250 251 251 252 253 254 255 256 257 258 259 260 262 263 265 266 267 268 269 270 271 272 274 275 277 278 280 281 282 284 285 285 285 286 286 286 285 286 286 287 287 287 288 289 290 290 291 291 292 292 292 292 292
227 226 225 225 225 225 225 226 227 228 228 228 228 228 229 229 230 231 232 234 235 237 238 240 242 243 245 246 247 249 250 251 252 252 252 252 253 254 255 256 257 258 260 261 263 264 265 266 267 269 270 271 273 274 276 278 279 281 283 284 285 286 286 286 286 287 287 287 286 287 287 287 287 288 288 288 289 289 290 290 290 290 290 290 290